Theta_e
313 312 312 312 310 308 297 287 276 294 292 277 273 270 271 284 283 285 284 283 282 281 282 281 279 281 282 290 290 286 288 283 274 278 283 284 283 280 281 275 275 276 277 276
313 312 312 311 310 305 292 282 284 296 288 272 269 270 274 280 283 283 283 282 284 284 282 277 281 282 287 288 289 287 288 276 268 274 279 282 282 284 283 282 280 276 273 276
313 312 311 311 309 304 292 283 280 286 289 281 274 270 271 275 283 283 284 284 284 283 282 283 281 283 285 287 288 292 290 281 276 271 275 279 279 282 283 281 274 277 277 278
313 312 311 310 309 305 293 283 277 283 280 281 276 279 278 276 275 280 283 282 283 282 278 280 280 281 283 286 290 285 284 273 277 279 278 279 280 281 281 280 280 275 277 279
313 312 311 310 308 305 293 281 279 282 280 283 280 280 277 279 279 279 278 278 282 282 281 282 280 281 282 281 283 282 281 271 276 272 277 276 274 278 279 281 282 281 280 280
312 311 311 309 307 303 293 289 288 286 282 281 279 279 279 280 282 282 283 283 282 281 282 283 282 283 283 283 282 281 279 273 269 267 271 269 266 273 277 279 279 281 279 283
312 311 310 309 307 303 295 291 290 284 276 280 280 280 281 280 282 280 282 283 282 284 285 284 282 281 281 281 280 282 276 270 261 264 263 261 275 275 276 277 277 281 281 282
312 311 310 309 307 305 298 295 291 286 279 282 281 281 281 281 282 281 282 282 285 286 283 274 268 268 272 273 278 279 280 275 261 263 255 268 274 275 275 276 275 280 281 280
305 310 309 309 308 306 300 295 296 289 281 279 285 282 282 278 278 276 281 284 285 284 279 268 263 264 266 266 270 280 279 277 269 258 259 260 273 277 280 279 271 279 281 279
303 310 309 309 308 307 301 296 297 290 284 284 285 280 280 282 280 278 280 282 282 283 269 261 265 266 267 265 267 273 271 264 262 262 258 266 275 279 280 269 274 281 281 280
301 304 310 309 308 307 302 296 298 292 285 285 287 286 281 282 281 277 279 279 278 272 268 267 266 264 268 267 272 273 272 266 262 259 259 265 278 278 276 279 280 282 282 282
298 301 305 309 308 307 304 293 298 298 288 287 290 289 288 287 287 283 280 281 279 281 273 271 269 264 263 268 266 276 272 274 271 272 272 279 279 280 281 281 281 282 282 283
297 299 301 309 308 307 303 295 296 293 285 286 287 286 291 291 289 290 280 278 284 282 282 276 272 268 272 269 270 272 275 277 274 275 278 278 280 281 282 282 283 283 283 283
295 297 298 303 308 307 303 294 296 293 287 283 284 289 288 289 289 289 288 286 285 283 280 271 268 270 278 273 276 274 276 278 274 274 278 279 281 281 282 283 283 283 282 283
294 296 297 299 308 307 301 297 297 297 289 282 282 286 286 287 288 288 288 288 284 277 274 269 272 276 276 277 274 273 277 276 276 275 280 281 281 282 283 282 282 283 282 281
293 295 296 297 306 304 291 285 295 297 293 284 280 285 284 285 288 288 287 286 282 279 277 272 272 278 277 268 272 279 279 279 281 280 281 282 282 283 283 282 283 283 283 283
293 294 295 296 302 296 290 286 291 298 293 282 277 279 284 286 286 287 286 286 284 281 275 279 278 281 276 266 269 278 279 281 280 281 282 281 281 282 283 283 283 280 279 280
292 293 295 296 299 298 292 296 299 297 287 284 276 275 280 285 283 282 286 284 285 282 277 281 279 280 278 274 277 276 277 279 280 281 282 282 283 280 277 277 277 275 276 276
291 293 294 294 294 286 285 300 299 292 286 278 276 275 275 284 284 283 284 284 281 284 280 280 280 278 275 278 279 275 277 279 280 279 278 277 278 279 277 274 271 274 275 273
291 290 285 283 285 298 296 285 284 284 282 278 275 277 276 283 278 280 279 279 272 275 275 278 277 278 279 278 277 279 278 279 276 273 271 268 272 275 274 276 275 276 274 272
286 283 284 285 297 289 284 281 281 281 278 278 273 275 278 280 279 276 276 272 269 270 271 277 275 272 278 280 278 278 276 278 277 274 281 280 279 278 276 273 272 272 269 269
286 285 286 288 285 283 279 278 280 276 276 272 275 277 281 279 282 279 276 268 270 268 271 275 271 271 277 281 282 280 277 276 279 277 277 279 278 276 274 272 270 269 269 266
285 284 283 281 282 276 275 272 273 271 271 275 279 279 278 279 279 273 272 265 270 268 272 269 269 273 271 277 274 276 273 278 274 270 270 273 272 269 272 271 266 266 265 264
279 279 276 277 276 276 277 279 281 269 276 281 283 276 278 276 273 271 266 266 267 268 266 264 268 275 277 271 263 268 270 275 278 276 273 273 272 270 263 263 262 263 265 262
278 280 275 276 277 270 284 279 277 280 284 283 278 274 275 267 272 265 264 266 266 264 264 267 274 279 276 268 262 265 269 270 270 264 268 267 265 265 261 258 259 260 259 261
277 277 275 274 278 273 278 279 279 284 284 284 277 273 273 267 267 262 265 263 261 266 267 268 270 268 263 261 262 260 262 263 261 260 259 259 258 259 258 258 261 259 259 261
275 274 276 279 280 279 279 281 282 286 283 279 269 269 270 268 263 263 263 264 267 264 264 264 261 257 257 259 259 258 258 259 258 258 257 256 257 258 262 265 261 256 256 258
Wind_Speed
30 28 27 26 26 25 8 4 1 0 1 5 0 4 7 3 4 1 1 2 2 5 5 3 1 3 3 3 1 2 1 1 3 2 3 2 1 1 1 4 3 2 2 3
32 31 30 30 30 25 7 5 3 1 4 4 3 4 2 2 4 4 5 5 5 3 5 2 4 4 2 1 2 1 2 2 4 8 6 4 5 3 1 1 2 1 4 4
34 34 32 33 34 26 6 5 5 2 2 2 7 5 4 4 2 3 3 5 4 3 4 4 5 5 3 1 2 3 2 1 4 4 3 2 3 4 3 2 3 3 3 5
36 35 35 36 36 27 6 2 6 5 7 8 4 5 7 6 5 1 2 1 6 5 4 3 4 3 2 0 1 3 2 2 0 0 2 3 3 3 3 2 1 3 2 7
38 36 37 37 37 28 3 6 6 0 4 5 13 8 8 10 5 9 5 4 8 6 7 7 7 6 3 4 2 2 1 2 1 3 2 3 4 7 4 3 3 4 2 1
39 40 40 40 40 27 5 3 2 5 8 6 9 8 7 10 11 6 4 9 5 6 6 4 3 4 4 4 5 3 2 4 3 4 4 4 6 8 7 3 1 6 5 5
40 41 43 43 44 35 5 4 5 4 4 7 8 6 13 11 13 7 3 5 6 3 10 7 6 7 7 7 5 2 5 4 3 3 5 2 6 1 1 3 1 3 3 5
39 41 42 44 45 41 9 4 6 5 4 7 4 7 9 6 5 3 6 5 5 10 5 6 6 6 7 4 3 3 1 5 4 4 3 7 5 4 6 6 4 6 5 3
16 39 44 46 45 43 15 5 4 4 8 10 8 7 9 7 5 4 1 2 4 4 4 5 6 5 5 3 5 3 5 5 5 4 5 6 5 2 3 2 2 6 6 7
16 25 42 47 46 44 19 7 9 5 4 3 9 7 11 8 5 5 4 5 2 2 3 4 4 5 3 4 8 5 3 4 6 2 2 10 7 4 2 6 6 5 7 7
16 13 41 45 47 46 21 9 13 10 4 1 5 7 7 5 6 7 6 6 3 3 3 5 5 4 7 3 3 7 7 7 4 4 3 9 6 3 6 4 2 6 6 7
15 17 13 38 42 44 29 7 12 5 4 3 2 4 3 4 12 9 3 4 6 7 5 0 4 2 2 4 4 1 4 7 7 10 8 3 6 1 2 4 6 5 6 5
16 17 19 40 44 44 30 11 15 7 4 2 3 4 3 1 5 4 8 3 5 4 3 5 3 4 5 6 6 4 4 4 3 3 4 7 5 4 4 5 5 4 3 5
16 17 18 16 42 43 30 15 14 9 5 4 4 2 3 2 2 4 4 8 5 6 3 3 4 4 4 4 3 4 4 9 7 5 5 4 6 8 6 7 3 3 3 5
17 17 17 23 35 40 18 8 12 10 8 5 4 4 1 2 6 8 8 11 7 3 3 3 3 3 4 1 3 3 6 9 7 8 8 7 6 10 9 7 7 7 6 4
17 17 15 20 25 38 10 5 6 8 6 6 5 2 3 3 6 10 9 4 4 4 5 4 2 2 4 5 5 7 9 7 7 5 6 5 4 7 7 7 6 5 7 6
16 17 14 18 12 19 17 10 11 21 6 5 4 3 2 6 5 3 2 2 3 4 2 2 3 4 5 3 6 6 9 10 7 4 6 3 5 6 8 5 6 5 1 3
16 17 14 22 14 21 4 2 35 20 8 4 6 3 3 5 4 3 2 2 2 2 4 3 3 3 2 7 9 5 4 5 7 10 8 4 6 7 5 3 4 2 3 2
16 17 12 5 9 8 5 19 31 6 4 7 5 10 7 5 4 3 2 2 4 2 4 4 7 5 10 10 11 10 11 12 10 9 6 5 5 6 5 5 2 3 4 2
15 6 4 5 8 36 22 6 4 3 2 3 4 3 6 8 3 3 4 2 3 4 6 5 6 9 6 8 10 8 9 11 9 7 3 2 3 7 6 8 5 7 5 4
4 5 4 2 37 7 3 7 7 5 5 5 4 4 12 0 9 4 1 3 2 3 6 7 6 7 10 12 11 9 8 11 12 2 8 11 7 7 6 5 6 6 5 5
4 1 3 6 6 5 9 7 6 6 10 4 11 8 9 5 4 5 1 4 2 7 3 4 7 6 7 16 17 14 12 11 12 8 8 10 9 7 6 5 5 6 3 2
3 5 7 7 7 10 13 12 5 7 8 11 14 16 6 4 4 5 4 5 8 3 5 7 6 4 4 12 7 9 8 10 7 7 7 6 6 6 6 5 3 4 4 4
7 8 8 7 7 7 6 16 20 5 11 21 21 9 6 4 5 5 7 5 4 4 6 8 5 7 8 7 5 7 10 13 15 12 9 8 9 7 4 3 4 4 2 4
6 7 10 7 3 0 18 14 13 14 21 20 12 6 6 3 7 3 5 4 7 8 7 6 8 9 9 7 5 7 9 9 8 6 8 8 7 6 5 2 2 4 3 3
6 6 6 1 10 5 10 18 21 19 18 16 6 7 6 4 7 6 10 10 9 7 7 2 3 3 4 5 4 7 6 8 8 7 6 7 5 5 5 0 5 3 1 5
7 6 2 9 10 17 14 21 23 20 19 15 7 9 10 6 5 4 7 9 7 3 2 3 5 4 4 7 9 7 7 8 8 6 6 5 4 4 6 5 1 1 3 6
Wind_Direction
186 182 176 172 162 148 113 119 87 183 54 74 124 168 190 256 165 148 151 118 153 192 172 152 213 224 184 16 210 305 50 3 259 252 277 237 241 354 36 105 280 44 89 226
183 180 176 170 161 151 132 118 136 78 95 152 248 302 295 241 158 186 170 191 204 204 172 124 202 207 198 33 45 62 23 331 356 347 353 6 44 336 326 74 52 225 122 233
184 178 175 168 164 159 102 117 138 177 161 159 147 148 229 194 258 189 179 166 149 169 168 196 186 197 215 173 175 75 79 128 176 190 220 311 323 338 359 46 86 184 201 150
183 178 174 170 167 165 106 133 208 181 170 204 172 193 151 142 171 246 216 242 220 175 146 168 217 168 150 344 150 68 108 160 189 165 14 320 286 283 330 64 51 118 209 157
182 179 173 170 167 164 129 148 142 355 152 136 165 196 207 170 178 149 227 203 189 192 159 183 195 159 196 195 132 101 31 162 89 335 350 0 292 283 267 244 163 115 66 133
183 177 174 171 167 158 160 182 125 132 155 152 162 204 190 196 144 222 185 190 139 187 206 133 101 103 72 137 152 133 81 128 77 271 340 346 332 229 193 192 216 141 171 201
182 181 176 172 170 178 121 174 119 107 184 182 194 184 177 175 201 142 186 164 145 190 115 102 54 55 71 66 39 73 130 92 67 232 12 2 250 299 109 162 228 211 116 145
203 181 178 174 176 180 169 163 149 147 155 180 158 162 174 102 156 128 154 199 195 156 84 69 42 348 21 333 22 12 90 122 76 120 186 287 301 194 181 175 209 192 188 140
333 190 179 178 180 180 169 168 114 103 123 212 134 159 174 145 145 12 85 14 137 87 102 89 145 182 195 284 348 12 82 60 112 76 132 215 249 213 209 165 322 174 166 167
304 210 189 181 181 179 172 163 150 124 139 215 145 167 174 139 129 140 142 155 191 33 97 103 153 218 168 178 168 174 88 24 146 163 218 288 233 213 180 97 223 154 156 156
284 329 200 186 181 178 173 161 174 155 134 153 176 158 139 117 141 147 187 85 303 47 114 131 201 134 213 121 182 176 160 142 176 94 86 271 169 95 184 200 133 142 145 154
304 311 293 193 185 177 169 150 165 138 118 165 168 199 211 180 166 135 206 170 158 171 110 85 105 124 89 164 216 159 208 181 177 185 209 256 209 256 240 157 147 178 145 165
297 292 305 197 187 180 174 149 152 128 130 75 127 190 202 125 162 161 123 300 171 181 169 151 165 165 133 167 230 156 240 157 182 104 236 218 218 224 231 205 181 153 129 164
282 298 299 295 191 181 167 161 163 138 103 134 179 48 176 316 211 125 126 141 88 106 82 113 145 158 179 197 164 169 176 140 172 265 274 297 236 220 207 218 193 171 183 183
285 287 300 290 197 175 152 143 173 159 133 136 125 104 299 337 170 123 129 133 121 121 80 98 207 125 117 86 81 226 188 174 169 214 198 181 207 200 190 187 195 201 178 190
282 280 294 302 201 156 121 109 204 175 122 112 144 47 137 82 136 131 141 140 103 97 132 203 219 231 127 154 194 241 195 189 176 200 187 205 167 147 145 172 191 168 189 213
280 287 289 312 248 149 166 173 152 161 114 99 96 129 156 122 95 63 56 360 90 108 152 208 163 197 143 130 184 235 201 204 194 199 126 144 174 190 184 155 141 141 155 230
276 280 283 296 250 142 158 101 146 145 98 111 130 128 148 175 127 130 181 107 99 156 178 160 164 134 192 243 220 200 199 192 197 199 218 190 149 118 121 109 123 160 246 256
273 284 284 289 186 156 143 154 144 63 108 125 143 148 160 159 112 117 115 113 179 133 200 192 156 184 216 213 199 189 197 183 197 179 177 160 180 175 159 137 114 175 250 204
261 266 220 196 162 121 111 61 129 150 112 100 124 119 138 155 122 118 111 122 169 195 229 130 221 237 216 201 210 202 188 193 133 120 178 126 221 199 173 196 185 193 181 184
211 212 216 227 136 113 122 150 165 140 151 161 142 158 131 133 147 129 147 156 160 195 238 189 234 248 209 189 210 206 186 179 191 215 167 172 165 177 187 203 204 200 196 211
239 294 162 182 136 165 144 156 134 144 181 154 135 148 122 110 109 101 156 138 130 231 163 222 247 233 207 183 204 200 184 184 192 174 182 171 167 156 148 166 185 191 173 100
313 259 211 199 178 164 161 146 148 151 167 169 149 142 114 112 100 82 115 121 211 129 203 232 231 263 229 186 187 186 189 180 148 143 144 156 145 138 156 174 164 156 178 199
225 225 218 209 179 166 165 153 172 149 142 140 138 119 131 128 83 133 126 226 89 211 229 234 241 224 208 198 172 128 189 184 186 180 157 159 155 160 144 144 155 134 22 26
248 237 209 202 125 215 160 113 108 133 136 134 127 73 86 81 112 114 115 132 234 213 222 226 228 201 184 181 170 161 161 168 155 133 140 141 132 140 117 114 138 70 19 330
276 281 307 27 128 102 132 128 127 147 136 137 75 106 120 188 132 125 202 152 215 226 218 249 12 32 51 88 86 68 84 98 105 95 98 100 112 123 144 88 41 50 223 266
211 241 107 276 153 158 146 139 139 149 145 150 119 123 180 113 121 204 185 191 206 198 115 34 28 90 73 80 79 67 74 87 88 99 94 120 143 120 74 83 6 321 273 262